AFL1325 ULMM-UUEE

Flight info

Callsign AFL1325
Flight time 2h 0m
Altitude 35000
Route ASGOR1N ASGOR T693 PILAN P65 UREPI/K0833F360 P65 ROMTA ROMTA3E
Aircraft A320/M-SDE3FGHIRWY/LB1

Departure

Time 2026-05-05 11:17
Airport Emperor Nicholas II Murmansk Airport (ULMM)

Arrival

Time 2026-05-05 13:18
Airport Sheremetyevo International Airport (UUEE)
Time Latitude Longitude Altitude Speed Heading
2026-05-05 11:05 68.78399 32.75680 254 ft 0 kts 326°
2026-05-05 11:09 68.78410 32.75663 254 ft 4 kts 333°
2026-05-05 11:09 68.78432 32.75625 254 ft 4 kts 320°
2026-05-05 11:09 68.78437 32.75563 254 ft 4 kts 261°
2026-05-05 11:09 68.78427 32.75516 254 ft 0 kts 236°
2026-05-05 11:12 68.78423 32.75500 254 ft 4 kts 236°
2026-05-05 11:13 68.78396 32.75390 254 ft 8 kts 236°
2026-05-05 11:13 68.78361 32.75239 254 ft 12 kts 239°
2026-05-05 11:13 68.78356 32.75220 254 ft 0 kts 239°
2026-05-05 11:13 68.78348 32.75187 254 ft 6 kts 236°
2026-05-05 11:14 68.78311 32.75026 255 ft 13 kts 241°
2026-05-05 11:14 68.78356 32.74792 255 ft 19 kts 327°
2026-05-05 11:14 68.78489 32.74553 254 ft 26 kts 324°
2026-05-05 11:14 68.78650 32.74252 255 ft 29 kts 326°
2026-05-05 11:15 68.78825 32.73929 255 ft 32 kts 326°
2026-05-05 11:15 68.78998 32.73856 254 ft 26 kts 25°
2026-05-05 11:15 68.79144 32.73871 254 ft 20 kts 312°
2026-05-05 11:15 68.79170 32.73686 254 ft 1 kts 243°
2026-05-05 11:16 68.79135 32.73548 254 ft 18 kts 235°
2026-05-05 11:16 68.79025 32.73527 256 ft 22 kts 127°
2026-05-05 11:16 68.78954 32.73680 255 ft 23 kts 145°
2026-05-05 11:16 68.78583 32.74388 254 ft 105 kts 146°
2026-05-05 11:17 68.77813 32.75898 294 ft 164 kts 139°
2026-05-05 11:17 68.76822 32.77786 1011 ft 172 kts 144°
2026-05-05 11:17 68.75676 32.78973 1884 ft 189 kts 168°
2026-05-05 11:17 68.74268 32.79037 2274 ft 216 kts 178°
2026-05-05 11:18 68.72704 32.78719 2666 ft 240 kts 181°
2026-05-05 11:18 68.70958 32.78335 3108 ft 260 kts 180°
2026-05-05 11:18 68.69121 32.77989 3927 ft 267 kts 179°
2026-05-05 11:18 68.67260 32.77711 4855 ft 268 kts 178°
2026-05-05 11:19 68.65385 32.77502 5766 ft 271 kts 178°
2026-05-05 11:19 68.63493 32.77350 6595 ft 274 kts 177°
2026-05-05 11:19 68.59945 32.77134 8102 ft 280 kts 178°
2026-05-05 11:20 68.57983 32.77024 8906 ft 284 kts 177°
2026-05-05 11:20 68.55991 32.76917 9674 ft 289 kts 178°
2026-05-05 11:20 68.53908 32.76811 9938 ft 311 kts 178°
2026-05-05 11:20 68.51660 32.76708 10104 ft 335 kts 178°
2026-05-05 11:21 68.49279 32.76542 10544 ft 346 kts 179°
2026-05-05 11:21 68.46856 32.76286 11223 ft 351 kts 180°
2026-05-05 11:21 68.44406 32.75989 11967 ft 354 kts 180°
2026-05-05 11:21 68.41936 32.75689 12702 ft 356 kts 179°
2026-05-05 11:22 68.39446 32.75542 13402 ft 358 kts 178°
2026-05-05 11:22 68.36947 32.75551 14066 ft 360 kts 177°
2026-05-05 11:22 68.34443 32.75628 14735 ft 361 kts 176°
2026-05-05 11:22 68.31926 32.75730 15387 ft 362 kts 177°
2026-05-05 11:23 68.29399 32.75828 16026 ft 364 kts 177°
2026-05-05 11:23 68.26863 32.75905 16644 ft 366 kts 177°
2026-05-05 11:23 68.24311 32.75965 17254 ft 368 kts 178°
2026-05-05 11:23 68.21741 32.76012 17817 ft 370 kts 178°
2026-05-05 11:24 68.19161 32.76044 18303 ft 373 kts 178°
2026-05-05 11:24 68.16557 32.76066 18778 ft 375 kts 178°
2026-05-05 11:24 68.13935 32.76094 19257 ft 378 kts 178°
2026-05-05 11:24 68.11297 32.76133 19737 ft 381 kts 178°
2026-05-05 11:25 68.08637 32.76180 20207 ft 383 kts 178°
2026-05-05 11:25 68.05964 32.76229 20668 ft 386 kts 178°
2026-05-05 11:25 68.03269 32.76278 21116 ft 388 kts 178°
2026-05-05 11:25 68.00556 32.76319 21555 ft 391 kts 178°
2026-05-05 11:26 67.97830 32.76352 22004 ft 394 kts 178°
2026-05-05 11:26 67.95079 32.76415 22441 ft 396 kts 177°
2026-05-05 11:26 67.92315 32.76508 22880 ft 399 kts 177°
2026-05-05 11:26 67.89532 32.76624 23241 ft 401 kts 177°
2026-05-05 11:27 67.86733 32.76748 23585 ft 404 kts 177°
2026-05-05 11:27 67.83913 32.76882 23929 ft 406 kts 177°
2026-05-05 11:27 67.81086 32.77009 24244 ft 408 kts 178°
2026-05-05 11:27 67.78234 32.77133 24573 ft 411 kts 178°
2026-05-05 11:28 67.75367 32.77246 24895 ft 413 kts 178°
2026-05-05 11:28 67.72484 32.77353 25218 ft 415 kts 178°
2026-05-05 11:28 67.69592 32.77458 25541 ft 418 kts 179°
2026-05-05 11:28 67.66669 32.77566 25859 ft 420 kts 179°
2026-05-05 11:29 67.63737 32.77667 26166 ft 423 kts 179°
2026-05-05 11:29 67.60784 32.77768 26478 ft 425 kts 179°
2026-05-05 11:29 67.57813 32.77886 26763 ft 428 kts 179°
2026-05-05 11:29 67.54829 32.78005 27048 ft 430 kts 180°
2026-05-05 11:30 67.51828 32.78118 27334 ft 432 kts 180°
2026-05-05 11:30 67.48817 32.78234 27622 ft 434 kts 180°
2026-05-05 11:30 67.45787 32.78736 27876 ft 438 kts 173°
2026-05-05 11:30 67.42801 32.80405 28153 ft 442 kts 165°
2026-05-05 11:31 67.39845 32.82666 28408 ft 444 kts 166°
2026-05-05 11:31 67.36872 32.84909 28640 ft 446 kts 166°
2026-05-05 11:31 67.33883 32.87149 28915 ft 448 kts 166°
2026-05-05 11:31 67.30889 32.89389 29291 ft 448 kts 166°
2026-05-05 11:32 67.27896 32.91630 29604 ft 447 kts 167°
2026-05-05 11:32 67.24902 32.93870 29877 ft 448 kts 167°
2026-05-05 11:32 67.21913 32.96103 30157 ft 448 kts 167°
2026-05-05 11:32 67.18917 32.98335 30452 ft 448 kts 167°
2026-05-05 11:33 67.15922 33.00555 30767 ft 448 kts 167°
2026-05-05 11:33 67.12920 33.02770 31074 ft 448 kts 167°
2026-05-05 11:33 67.09922 33.04981 31348 ft 449 kts 167°
2026-05-05 11:33 67.06922 33.07193 31615 ft 449 kts 168°
2026-05-05 11:34 67.03918 33.09397 31891 ft 449 kts 168°
2026-05-05 11:34 67.00914 33.11585 32168 ft 449 kts 168°
2026-05-05 11:34 66.97912 33.13766 32441 ft 449 kts 168°
2026-05-05 11:34 66.94908 33.15945 32712 ft 449 kts 168°
2026-05-05 11:35 66.91905 33.18129 32983 ft 449 kts 168°
2026-05-05 11:35 66.88902 33.20312 33248 ft 449 kts 168°
2026-05-05 11:35 66.85898 33.22488 33516 ft 449 kts 168°
2026-05-05 11:35 66.82892 33.24652 33742 ft 449 kts 168°
2026-05-05 11:36 66.79882 33.26815 33963 ft 449 kts 168°
2026-05-05 11:36 66.76877 33.28981 34182 ft 449 kts 168°
2026-05-05 11:36 66.73868 33.31144 34397 ft 449 kts 169°
2026-05-05 11:36 66.70859 33.33292 34595 ft 449 kts 169°
2026-05-05 11:37 66.67855 33.35431 34787 ft 449 kts 169°
2026-05-05 11:37 66.64847 33.37574 34977 ft 449 kts 169°
2026-05-05 11:37 66.61839 33.39710 35146 ft 449 kts 169°
2026-05-05 11:37 66.58829 33.41834 35311 ft 449 kts 169°
2026-05-05 11:38 66.55814 33.43949 35362 ft 450 kts 169°
2026-05-05 11:38 66.49782 33.48176 35371 ft 450 kts 169°
2026-05-05 11:39 66.43750 33.52400 35368 ft 450 kts 169°
2026-05-05 11:39 66.37720 33.56601 35371 ft 450 kts 169°
2026-05-05 11:40 66.31685 33.60756 35369 ft 450 kts 169°
2026-05-05 11:40 66.25652 33.64872 35364 ft 450 kts 169°
2026-05-05 11:41 66.19602 33.68984 35362 ft 450 kts 170°
2026-05-05 11:41 66.13564 33.73074 35361 ft 450 kts 170°
2026-05-05 11:42 66.07524 33.77149 35360 ft 450 kts 170°
2026-05-05 11:42 66.01482 33.81198 35362 ft 450 kts 170°
2026-05-05 11:43 65.95443 33.85220 35363 ft 450 kts 170°
2026-05-05 11:43 65.89399 33.89208 35372 ft 450 kts 170°
2026-05-05 11:44 65.83360 33.93201 35376 ft 450 kts 170°
2026-05-05 11:44 65.77315 33.97175 35380 ft 450 kts 170°
2026-05-05 11:45 65.71262 34.01131 35383 ft 450 kts 171°
2026-05-05 11:45 65.65218 34.05068 35386 ft 449 kts 171°
2026-05-05 11:46 65.59220 34.08932 35393 ft 449 kts 171°
2026-05-05 11:46 65.53183 34.12806 35391 ft 449 kts 171°
2026-05-05 11:47 65.47149 34.16673 35397 ft 449 kts 171°
2026-05-05 11:47 65.41076 34.20566 35400 ft 448 kts 171°
2026-05-05 11:48 65.32073 34.26280 35402 ft 448 kts 171°
2026-05-05 11:48 65.26004 34.30090 35406 ft 448 kts 171°
2026-05-05 11:49 65.20017 34.33833 35411 ft 448 kts 171°
2026-05-05 11:49 65.13952 34.37607 35413 ft 447 kts 171°
2026-05-05 11:50 65.07971 34.41321 35419 ft 447 kts 171°
2026-05-05 11:50 65.01954 34.45047 35421 ft 447 kts 171°
2026-05-05 11:51 64.95934 34.48756 35429 ft 447 kts 172°
2026-05-05 11:51 64.89901 34.52777 35432 ft 449 kts 169°
2026-05-05 11:52 64.83949 34.57294 35438 ft 450 kts 168°
2026-05-05 11:52 64.78006 34.61835 35449 ft 449 kts 169°
2026-05-05 11:53 64.72082 34.66209 35445 ft 449 kts 169°
2026-05-05 11:53 64.66083 34.70542 35446 ft 448 kts 169°
2026-05-05 11:54 64.60124 34.74844 35447 ft 448 kts 169°
2026-05-05 11:54 64.54165 34.79129 35449 ft 448 kts 169°
2026-05-05 11:55 64.48212 34.83390 35459 ft 448 kts 170°
2026-05-05 11:55 64.42304 34.87670 35464 ft 448 kts 169°
2026-05-05 11:56 64.36372 34.92143 35477 ft 448 kts 169°
2026-05-05 11:56 64.31411 34.95897 35482 ft 448 kts 169°
2026-05-05 11:57 64.25488 35.00329 35484 ft 447 kts 169°
2026-05-05 11:57 64.18607 35.05415 35492 ft 447 kts 169°
2026-05-05 11:58 64.13654 35.09052 35493 ft 446 kts 169°
2026-05-05 11:58 64.07743 35.13380 35495 ft 446 kts 169°
2026-05-05 11:59 64.01854 35.17873 35495 ft 447 kts 168°
2026-05-05 11:59 63.95999 35.22649 35495 ft 447 kts 167°
2026-05-05 12:00 63.90149 35.27406 35492 ft 446 kts 168°
2026-05-05 12:00 63.84297 35.32061 35490 ft 446 kts 168°
2026-05-05 12:01 63.78438 35.36663 35483 ft 446 kts 168°
2026-05-05 12:01 63.72578 35.41263 35485 ft 446 kts 168°
2026-05-05 12:02 63.66715 35.45832 35496 ft 446 kts 168°
2026-05-05 12:02 63.60848 35.50365 35494 ft 445 kts 169°
2026-05-05 12:03 63.54954 35.54552 35496 ft 444 kts 171°
2026-05-05 12:03 63.49046 35.58586 35503 ft 444 kts 171°
2026-05-05 12:04 63.43141 35.62654 35501 ft 444 kts 171°
2026-05-05 12:04 63.37238 35.66777 35502 ft 445 kts 170°
2026-05-05 12:05 63.31330 35.70895 35503 ft 445 kts 171°
2026-05-05 12:05 63.25415 35.74969 35516 ft 445 kts 171°
2026-05-05 12:06 63.19500 35.79029 35518 ft 445 kts 171°
2026-05-05 12:06 63.13582 35.83067 35523 ft 445 kts 171°
2026-05-05 12:07 63.07656 35.87131 35531 ft 446 kts 171°
2026-05-05 12:07 63.01732 35.91190 35537 ft 446 kts 171°
2026-05-05 12:08 62.95807 35.95237 35548 ft 446 kts 171°
2026-05-05 12:08 62.89880 35.99272 35551 ft 446 kts 171°
2026-05-05 12:09 62.83949 36.03275 35558 ft 446 kts 171°
2026-05-05 12:09 62.78013 36.07231 35568 ft 446 kts 171°
2026-05-05 12:10 62.72067 36.11171 35569 ft 446 kts 171°
2026-05-05 12:10 62.66130 36.15104 35583 ft 446 kts 171°
2026-05-05 12:11 62.60190 36.19038 35588 ft 446 kts 171°
2026-05-05 12:11 62.54244 36.22932 35591 ft 446 kts 171°
2026-05-05 12:12 62.48301 36.26804 35593 ft 446 kts 171°
2026-05-05 12:12 62.42360 36.30677 35601 ft 446 kts 171°
2026-05-05 12:13 62.36418 36.34538 35606 ft 446 kts 171°
2026-05-05 12:13 62.30475 36.38369 35611 ft 446 kts 172°
2026-05-05 12:14 62.24534 36.42172 35614 ft 446 kts 172°
2026-05-05 12:14 62.18594 36.46001 35620 ft 446 kts 172°
2026-05-05 12:15 62.12653 36.49806 35626 ft 446 kts 172°
2026-05-05 12:15 62.06704 36.53577 35630 ft 445 kts 172°
2026-05-05 12:16 62.00761 36.57331 35636 ft 445 kts 172°
2026-05-05 12:16 61.94818 36.61083 35636 ft 446 kts 172°
2026-05-05 12:17 61.88876 36.64811 35640 ft 445 kts 172°
2026-05-05 12:17 61.82925 36.68524 35647 ft 446 kts 172°
2026-05-05 12:18 61.76980 36.72233 35655 ft 446 kts 172°
2026-05-05 12:18 61.71028 36.75939 35655 ft 446 kts 172°
2026-05-05 12:19 61.65072 36.79635 35651 ft 446 kts 172°
2026-05-05 12:19 61.59119 36.83307 35660 ft 446 kts 172°
2026-05-05 12:20 61.53164 36.86948 35662 ft 446 kts 172°
2026-05-05 12:20 61.47246 36.90569 35662 ft 446 kts 172°
2026-05-05 12:21 61.41283 36.94207 35668 ft 446 kts 172°
2026-05-05 12:21 61.35320 36.97815 35674 ft 446 kts 172°
2026-05-05 12:22 61.29358 37.01410 35679 ft 446 kts 171°
2026-05-05 12:22 61.23415 37.05160 35678 ft 447 kts 170°
2026-05-05 12:23 61.17471 37.09043 35677 ft 447 kts 170°
2026-05-05 12:23 61.11531 37.12885 35685 ft 447 kts 170°
2026-05-05 12:24 61.05582 37.16666 35685 ft 447 kts 170°
2026-05-05 12:24 60.99636 37.20419 35686 ft 447 kts 170°
2026-05-05 12:25 60.93689 37.24158 35693 ft 447 kts 170°
2026-05-05 12:25 60.87738 37.27892 35694 ft 447 kts 170°
2026-05-05 12:26 60.81789 37.31630 35697 ft 447 kts 170°
2026-05-05 12:26 60.75837 37.35341 35700 ft 447 kts 170°
2026-05-05 12:27 60.69886 37.39022 35703 ft 447 kts 170°
2026-05-05 12:27 60.63940 37.42687 35703 ft 447 kts 170°
2026-05-05 12:28 60.57988 37.46348 35710 ft 447 kts 169°
2026-05-05 12:28 60.52034 37.50005 35716 ft 447 kts 169°
2026-05-05 12:29 60.46082 37.53638 35715 ft 446 kts 170°
2026-05-05 12:29 60.40097 37.56848 35724 ft 444 kts 173°
2026-05-05 12:30 60.34083 37.59697 35722 ft 444 kts 173°
2026-05-05 12:30 60.28076 37.62546 35728 ft 444 kts 173°
2026-05-05 12:31 60.22069 37.65502 35729 ft 444 kts 172°
2026-05-05 12:31 60.16063 37.68503 35735 ft 444 kts 172°
2026-05-05 12:32 60.10099 37.71453 35737 ft 444 kts 172°
2026-05-05 12:32 60.04093 37.74385 35751 ft 444 kts 172°
2026-05-05 12:33 59.98067 37.77127 35742 ft 443 kts 174°
2026-05-05 12:33 59.92013 37.79320 35743 ft 442 kts 176°
2026-05-05 12:34 59.85952 37.81400 35744 ft 442 kts 175°
2026-05-05 12:34 59.79898 37.83591 35744 ft 443 kts 175°
2026-05-05 12:35 59.73838 37.85851 35746 ft 443 kts 174°
2026-05-05 12:35 59.67781 37.88100 35752 ft 443 kts 175°
2026-05-05 12:36 59.61716 37.90244 35758 ft 443 kts 175°
2026-05-05 12:36 59.55642 37.92310 35762 ft 443 kts 175°
2026-05-05 12:37 59.49572 37.94396 35771 ft 443 kts 175°
2026-05-05 12:37 59.43502 37.96500 35773 ft 443 kts 175°
2026-05-05 12:38 59.37435 37.98603 35775 ft 443 kts 175°
2026-05-05 12:38 59.31354 38.00697 35774 ft 443 kts 175°
2026-05-05 12:39 59.25280 38.01567 35774 ft 434 kts 189°
2026-05-05 12:39 59.19263 38.00545 35768 ft 434 kts 189°
2026-05-05 12:40 59.14258 37.99741 35765 ft 434 kts 189°
2026-05-05 12:40 59.08226 37.98776 35764 ft 435 kts 189°
2026-05-05 12:41 59.02156 37.97793 35769 ft 435 kts 189°
2026-05-05 12:41 58.96167 37.96812 35775 ft 435 kts 189°
2026-05-05 12:42 58.90126 37.95838 35769 ft 435 kts 188°
2026-05-05 12:42 58.84088 37.94876 35772 ft 436 kts 188°
2026-05-05 12:43 58.78040 37.93922 35773 ft 436 kts 188°
2026-05-05 12:43 58.71990 37.92971 35773 ft 436 kts 188°
2026-05-05 12:44 58.65932 37.92016 35773 ft 437 kts 188°
2026-05-05 12:44 58.59870 37.91164 35769 ft 437 kts 188°
2026-05-05 12:45 58.56844 37.90774 35301 ft 436 kts 187°
2026-05-05 12:45 58.53814 37.90384 34611 ft 436 kts 187°
2026-05-05 12:45 58.50783 37.89991 33920 ft 437 kts 187°
2026-05-05 12:45 58.47742 37.89592 33138 ft 438 kts 187°
2026-05-05 12:46 58.44701 37.89184 32309 ft 439 kts 187°
2026-05-05 12:46 58.41655 37.88768 31897 ft 440 kts 187°
2026-05-05 12:46 58.38592 37.88348 31749 ft 441 kts 187°
2026-05-05 12:46 58.35524 37.87931 31794 ft 442 kts 187°
2026-05-05 12:47 58.29398 37.87106 31787 ft 443 kts 187°
2026-05-05 12:47 58.23243 37.86288 31788 ft 443 kts 187°
2026-05-05 12:48 58.17097 37.85467 31788 ft 443 kts 188°
2026-05-05 12:48 58.10957 37.84659 31787 ft 442 kts 188°
2026-05-05 12:49 58.04822 37.83851 31790 ft 441 kts 188°
2026-05-05 12:49 57.98698 37.83028 31794 ft 440 kts 188°
2026-05-05 12:50 57.92595 37.82221 31789 ft 439 kts 189°
2026-05-05 12:50 57.86497 37.81433 31792 ft 438 kts 189°
2026-05-05 12:51 57.80421 37.80637 31752 ft 436 kts 189°
2026-05-05 12:51 57.77419 37.80221 30749 ft 431 kts 190°
2026-05-05 12:51 57.74427 37.79791 29450 ft 430 kts 190°
2026-05-05 12:52 57.71466 37.79367 28318 ft 422 kts 191°
2026-05-05 12:52 57.68561 37.78949 27249 ft 415 kts 191°
2026-05-05 12:52 57.65709 37.78545 26225 ft 408 kts 191°
2026-05-05 12:52 57.62902 37.78151 25236 ft 401 kts 191°
2026-05-05 12:53 57.60142 37.77762 24267 ft 395 kts 191°
2026-05-05 12:53 57.57419 37.77377 23388 ft 390 kts 191°
2026-05-05 12:53 57.54715 37.76985 22960 ft 390 kts 191°
2026-05-05 12:53 57.52004 37.76588 22757 ft 390 kts 191°
2026-05-05 12:54 57.46584 37.75813 22369 ft 389 kts 191°
2026-05-05 12:54 57.43921 37.75455 22026 ft 385 kts 191°
2026-05-05 12:54 57.41259 37.75110 21438 ft 382 kts 191°
2026-05-05 12:55 57.38613 37.74773 20862 ft 380 kts 191°
2026-05-05 12:55 57.35990 37.74444 20307 ft 377 kts 190°
2026-05-05 12:55 57.33379 37.74114 19766 ft 374 kts 190°
2026-05-05 12:55 57.30790 37.73775 19249 ft 372 kts 190°
2026-05-05 12:56 57.28216 37.73436 18732 ft 370 kts 190°
2026-05-05 12:56 57.25662 37.73103 18234 ft 368 kts 190°
2026-05-05 12:56 57.23111 37.72778 17852 ft 367 kts 190°
2026-05-05 12:56 57.20562 37.72456 17785 ft 367 kts 190°
2026-05-05 12:57 57.18007 37.72130 17798 ft 368 kts 190°
2026-05-05 12:57 57.15471 37.71805 17794 ft 359 kts 190°
2026-05-05 12:57 57.13030 37.71501 17673 ft 346 kts 190°
2026-05-05 12:57 57.10696 37.70932 17412 ft 331 kts 200°
2026-05-05 12:58 57.08558 37.69572 16999 ft 322 kts 208°
2026-05-05 12:58 57.06490 37.68007 16554 ft 321 kts 208°
2026-05-05 12:58 57.04434 37.66464 16130 ft 319 kts 207°
2026-05-05 12:58 57.02377 37.64930 15708 ft 318 kts 207°
2026-05-05 12:59 57.00328 37.63408 15297 ft 317 kts 207°
2026-05-05 12:59 56.98291 37.61901 14901 ft 316 kts 207°
2026-05-05 12:59 56.96256 37.60397 14509 ft 314 kts 207°
2026-05-05 13:00 56.92216 37.57411 13754 ft 312 kts 207°
2026-05-05 13:00 56.90204 37.55929 13336 ft 311 kts 207°
2026-05-05 13:01 56.84223 37.51541 12132 ft 306 kts 206°
2026-05-05 13:01 56.82251 37.50093 11747 ft 305 kts 206°
2026-05-05 13:01 56.80290 37.48655 11368 ft 303 kts 206°
2026-05-05 13:01 56.78336 37.47226 10994 ft 302 kts 206°
2026-05-05 13:02 56.76395 37.45802 10800 ft 301 kts 206°
2026-05-05 13:02 56.74445 37.44371 10817 ft 302 kts 206°
2026-05-05 13:02 56.72483 37.43019 10529 ft 302 kts 199°
2026-05-05 13:02 56.70372 37.42704 10127 ft 310 kts 178°
2026-05-05 13:03 56.68238 37.43313 9768 ft 310 kts 175°
2026-05-05 13:03 56.66153 37.43979 9633 ft 299 kts 174°
2026-05-05 13:03 56.64139 37.44643 9442 ft 290 kts 175°
2026-05-05 13:03 56.62171 37.45286 8940 ft 285 kts 175°
2026-05-05 13:04 56.60255 37.45907 8315 ft 282 kts 175°
2026-05-05 13:04 56.58332 37.46528 7680 ft 279 kts 175°
2026-05-05 13:04 56.56427 37.47137 7072 ft 276 kts 175°
2026-05-05 13:04 56.54546 37.47737 6457 ft 273 kts 175°
2026-05-05 13:05 56.52684 37.48330 5841 ft 270 kts 175°
2026-05-05 13:05 56.50838 37.48913 5222 ft 268 kts 174°
2026-05-05 13:05 56.49015 37.49488 5017 ft 267 kts 174°
2026-05-05 13:05 56.47179 37.50067 5004 ft 269 kts 174°
2026-05-05 13:06 56.45332 37.50649 5009 ft 270 kts 175°
2026-05-05 13:06 56.43485 37.51232 5012 ft 269 kts 175°
2026-05-05 13:06 56.41636 37.51819 5008 ft 269 kts 175°
2026-05-05 13:06 56.39791 37.52404 5009 ft 269 kts 175°
2026-05-05 13:07 56.37946 37.52988 5013 ft 269 kts 175°
2026-05-05 13:07 56.36101 37.53573 5017 ft 269 kts 175°
2026-05-05 13:07 56.34266 37.54155 5012 ft 267 kts 175°
2026-05-05 13:07 56.32438 37.54731 5014 ft 266 kts 175°
2026-05-05 13:08 56.30613 37.55305 4928 ft 265 kts 175°
2026-05-05 13:08 56.28802 37.55875 4549 ft 263 kts 175°
2026-05-05 13:08 56.27000 37.56443 4161 ft 262 kts 175°
2026-05-05 13:08 56.25210 37.57007 3995 ft 260 kts 174°
2026-05-05 13:09 56.23469 37.57559 3879 ft 245 kts 174°
2026-05-05 13:09 56.21854 37.58072 3679 ft 231 kts 175°
2026-05-05 13:09 56.20294 37.58783 3245 ft 235 kts 161°
2026-05-05 13:09 56.18789 37.59992 3037 ft 240 kts 161°
2026-05-05 13:10 56.17255 37.61220 3020 ft 242 kts 160°
2026-05-05 13:10 56.15715 37.62455 3030 ft 243 kts 160°
2026-05-05 13:10 56.14172 37.63694 3038 ft 244 kts 161°
2026-05-05 13:10 56.12622 37.64939 3028 ft 244 kts 160°
2026-05-05 13:11 56.11075 37.66187 3018 ft 239 kts 161°
2026-05-05 13:11 56.09597 37.67389 3022 ft 227 kts 161°
2026-05-05 13:11 56.08210 37.68518 3025 ft 212 kts 161°
2026-05-05 13:11 56.06905 37.69577 3041 ft 197 kts 162°
2026-05-05 13:12 56.05721 37.70540 3037 ft 175 kts 162°
2026-05-05 13:12 56.04681 37.71389 3031 ft 158 kts 164°
2026-05-05 13:12 56.03689 37.72115 3024 ft 149 kts 175°
2026-05-05 13:12 56.02706 37.72081 3025 ft 137 kts 202°
2026-05-05 13:13 56.01896 37.71298 3028 ft 132 kts 226°
2026-05-05 13:13 56.01371 37.69982 3032 ft 131 kts 249°
2026-05-05 13:13 56.01125 37.68408 3041 ft 132 kts 255°
2026-05-05 13:13 56.00891 37.66806 3031 ft 133 kts 255°
2026-05-05 13:14 56.00652 37.65185 3044 ft 140 kts 255°
2026-05-05 13:14 56.00407 37.63532 2949 ft 136 kts 255°
2026-05-05 13:14 56.00167 37.61931 2765 ft 132 kts 255°
2026-05-05 13:14 55.99935 37.60372 2463 ft 130 kts 254°
2026-05-05 13:15 55.99702 37.58801 2172 ft 131 kts 254°
2026-05-05 13:15 55.99472 37.57243 2049 ft 131 kts 253°
2026-05-05 13:15 55.99238 37.55659 1896 ft 135 kts 255°
2026-05-05 13:15 55.99002 37.54064 1755 ft 132 kts 254°
2026-05-05 13:16 55.98770 37.52478 1453 ft 135 kts 255°
2026-05-05 13:16 55.98555 37.50822 1263 ft 134 kts 255°
2026-05-05 13:16 55.98305 37.49211 1214 ft 135 kts 253°
2026-05-05 13:16 55.98054 37.47589 1186 ft 133 kts 253°
2026-05-05 13:17 55.97813 37.45997 913 ft 135 kts 252°
2026-05-05 13:17 55.97576 37.44386 675 ft 133 kts 252°
2026-05-05 13:17 55.97319 37.42910 633 ft 84 kts 256°
2026-05-05 13:17 55.97219 37.42068 628 ft 61 kts 263°
2026-05-05 13:18 55.97124 37.41438 634 ft 45 kts 254°
2026-05-05 13:18 55.97051 37.40930 634 ft 41 kts 255°
2026-05-05 13:18 55.96972 37.40412 632 ft 45 kts 254°
2026-05-05 13:18 55.96973 37.40052 630 ft 20 kts 337°
2026-05-05 13:19 55.97044 37.40013 629 ft 0 kts 350°
2026-05-05 13:21 55.97095 37.39987 629 ft 17 kts 344°
2026-05-05 13:21 55.97230 37.39924 628 ft 22 kts 343°
2026-05-05 13:21 55.97388 37.39839 634 ft 25 kts 345°
2026-05-05 13:21 55.97555 37.39759 628 ft 21 kts 345°
2026-05-05 13:22 55.97668 37.39810 638 ft 13 kts 36°
2026-05-05 13:22 55.97681 37.39826 639 ft 0 kts 34°